User: anonymous   Login
Location: Unspecified
(0.0000°N, 0.0000°E)
Time: 09:08:53
(UTC+00:00)
Language:

DSP F14 - Orbit

View from above orbital plane
View from above orbital plane
View from above satellite
View from above satellite

Ground track
Ground track

The orbit data is extracted from the following two-line orbital elements,

1 20066U 89046A   18161.65125968 0.00000000  00000-0  00000-0 0    03
2 20066  14.7225   4.0439 0002897 292.1702  67.8111  0.98814522    09
Epoch (UTC): 10 June 2018 15:37:48
Eccentricity: 0.0002897
inclination: 14.7225°
perigee height: 36187 km
apogee height: 36212 km
right ascension of ascending node: 4.0439°
argument of perigee: 292.1702°
revolutions per day: 0.98814522
mean anomaly at epoch: 67.8111°
orbit number at epoch: 0

The dashed part of the orbit path shows where the satellite is in the earth's shadow,  

DLR